Total_Precipitation_Accumulation
0.00 0.00 0.00 0.00 0.00 0.00 0.07 0.10 0.06 0.45 0.10 0.09 0.10 0.03 0.01 0.00 0.03 0.33 0.26 0.04 0.00 0.01 0.02 0.01 0.00 0.00 0.00 0.00 0.00 0.00 0.00 0.01 0.02 0.03 0.01 0.00 0.00 0.02 0.02 0.03 0.11 0.05 0.06 0.05
0.00 0.00 0.00 0.00 0.00 0.00 0.00 0.02 0.01 0.17 0.13 0.16 0.40 0.29 0.12 0.01 0.02 0.12 0.11 0.04 0.03 0.02 0.03 0.01 0.01 0.00 0.00 0.00 0.00 0.00 0.01 0.01 0.00 0.00 0.00 0.01 0.01 0.02 0.04 0.05 0.03 0.04 0.03 0.02
0.00 0.00 0.00 0.00 0.00 0.00 0.00 0.00 0.00 0.01 0.06 0.20 0.27 0.36 0.80 0.13 0.02 0.08 0.09 0.05 0.04 0.01 0.01 0.08 0.04 0.01 0.00 0.01 0.00 0.00 0.02 0.03 0.00 0.00 0.00 0.01 0.02 0.02 0.05 0.07 0.01 0.03 0.00 0.01
0.00 0.00 0.00 0.00 0.00 0.00 0.00 0.00 0.00 0.01 0.01 0.06 0.07 0.31 1.19 0.53 0.05 0.01 0.03 0.02 0.04 0.03 0.01 0.23 0.16 0.04 0.01 0.02 0.02 0.01 0.04 0.06 0.00 0.02 0.00 0.02 0.01 0.01 0.01 0.01 0.00 0.02 0.00 0.00
0.00 0.00 0.00 0.00 0.00 0.00 0.00 0.00 0.00 0.00 0.00 0.01 0.02 0.05 0.22 0.53 0.09 0.05 0.03 0.00 0.02 0.03 0.01 0.01 0.03 0.05 0.10 0.08 0.32 0.24 0.09 0.07 0.07 0.02 0.05 0.03 0.00 0.00 0.01 0.00 0.02 0.03 0.02 0.00
0.00 0.00 0.00 0.00 0.00 0.00 0.00 0.00 0.00 0.00 0.02 0.01 0.00 0.03 0.06 0.06 0.01 0.39 0.29 0.06 0.02 0.04 0.01 0.03 0.02 0.03 0.10 0.44 0.80 0.28 0.15 0.07 0.04 0.02 0.09 0.09 0.03 0.01 0.03 0.07 0.04 0.00 0.00 0.00
0.00 0.00 0.00 0.00 0.00 0.00 0.00 0.00 0.00 0.00 0.00 0.00 0.01 0.02 0.04 0.02 0.01 0.25 0.74 0.24 0.05 0.04 0.07 0.06 0.02 0.01 0.00 0.11 0.40 0.16 0.15 0.12 0.04 0.02 0.05 0.05 0.05 0.08 0.05 0.10 0.05 0.01 0.02 0.01
0.00 0.00 0.00 0.00 0.00 0.00 0.00 0.00 0.00 0.00 0.02 0.01 0.01 0.02 0.04 0.00 0.01 0.04 0.01 0.02 0.04 0.04 0.09 0.07 0.06 0.03 0.00 0.00 0.05 0.07 0.16 0.09 0.03 0.01 0.03 0.05 0.09 0.06 0.02 0.02 0.01 0.00 0.01 0.01
0.00 0.00 0.00 0.00 0.00 0.00 0.00 0.00 0.00 0.00 0.02 0.05 0.02 0.01 0.01 0.00 0.01 0.01 0.00 0.03 0.02 0.02 0.04 0.03 0.04 0.02 0.01 0.01 0.01 0.17 0.50 0.23 0.10 0.02 0.05 0.07 0.05 0.03 0.01 0.00 0.01 0.01 0.01 0.01
0.00 0.00 0.00 0.00 0.00 0.00 0.00 0.00 0.00 0.00 0.00 0.01 0.03 0.01 0.00 0.01 0.01 0.01 0.00 0.00 0.00 0.01 0.02 0.03 0.03 0.03 0.02 0.04 0.04 0.10 0.15 0.18 0.13 0.06 0.04 0.01 0.01 0.02 0.06 0.04 0.03 0.04 0.02 0.02
0.00 0.00 0.00 0.00 0.00 0.00 0.00 0.00 0.00 0.00 0.00 0.00 0.00 0.03 0.01 0.03 0.05 0.02 0.00 0.00 0.00 0.00 0.01 0.01 0.02 0.03 0.03 0.05 0.08 0.05 0.17 0.16 0.16 0.09 0.08 0.02 0.00 0.00 0.04 0.04 0.07 0.07 0.12 0.09
0.00 0.00 0.00 0.00 0.00 0.00 0.00 0.00 0.00 0.00 0.00 0.00 0.00 0.00 0.01 0.00 0.00 0.02 0.00 0.02 0.02 0.01 0.00 0.00 0.02 0.02 0.03 0.05 0.02 0.04 0.03 0.06 0.13 0.03 0.13 0.05 0.01 0.00 0.01 0.02 0.07 0.07 0.12 0.14
0.00 0.00 0.00 0.00 0.00 0.00 0.00 0.00 0.00 0.00 0.00 0.00 0.00 0.00 0.00 0.00 0.00 0.01 0.00 0.01 0.01 0.00 0.00 0.00 0.00 0.00 0.03 0.02 0.02 0.04 0.04 0.04 0.04 0.09 0.07 0.12 0.04 0.06 0.02 0.01 0.01 0.06 0.09 0.16
0.00 0.00 0.00 0.00 0.00 0.00 0.00 0.00 0.00 0.00 0.00 0.00 0.01 0.01 0.00 0.00 0.00 0.00 0.00 0.00 0.00 0.00 0.00 0.00 0.00 0.00 0.03 0.04 0.04 0.07 0.05 0.07 0.10 0.31 0.52 0.39 0.45 0.47 0.35 0.34 0.33 0.22 0.19 0.12
0.00 0.00 0.00 0.00 0.00 0.00 0.01 0.00 0.00 0.00 0.00 0.00 0.00 0.01 0.00 0.00 0.00 0.00 0.00 0.00 0.00 0.00 0.00 0.00 0.00 0.00 0.00 0.02 0.02 0.08 0.07 0.13 0.20 0.46 1.07 1.33 1.31 1.14 1.07 1.32 1.25 0.77 0.45 0.26
0.00 0.00 0.00 0.00 0.00 0.00 0.00 0.01 0.00 0.00 0.00 0.00 0.00 0.00 0.01 0.00 0.00 0.00 0.00 0.00 0.00 0.00 0.00 0.00 0.00 0.00 0.00 0.01 0.03 0.08 0.09 0.09 0.16 0.42 0.56 0.79 1.39 1.78 1.14 0.86 1.15 1.37 0.85 0.51
0.00 0.00 0.00 0.00 0.00 0.01 0.05 0.00 0.00 0.00 0.00 0.00 0.00 0.00 0.01 0.00 0.00 0.00 0.00 0.00 0.00 0.00 0.00 0.00 0.00 0.00 0.00 0.00 0.03 0.07 0.13 0.20 0.26 0.40 0.52 0.68 1.05 2.14 2.29 1.01 0.83 0.90 0.92 0.78
0.00 0.00 0.00 0.00 0.00 0.00 0.00 0.00 0.00 0.00 0.01 0.00 0.00 0.00 0.00 0.00 0.00 0.00 0.00 0.00 0.00 0.00 0.00 0.00 0.00 0.00 0.00 0.00 0.01 0.03 0.03 0.10 0.22 0.43 0.46 0.73 0.87 1.45 1.94 1.32 0.94 0.92 0.95 0.95
0.00 0.00 0.00 0.00 0.00 0.00 0.00 0.00 0.00 0.01 0.00 0.00 0.00 0.00 0.00 0.00 0.00 0.00 0.00 0.00 0.00 0.00 0.00 0.00 0.00 0.00 0.00 0.00 0.00 0.00 0.00 0.01 0.06 0.19 0.48 1.20 1.88 1.84 2.05 2.41 1.51 0.96 1.03 0.87
0.00 0.00 0.00 0.00 0.00 0.00 0.00 0.01 0.00 0.00 0.00 0.00 0.00 0.00 0.00 0.00 0.01 0.00 0.00 0.00 0.00 0.00 0.00 0.00 0.00 0.00 0.00 0.00 0.00 0.00 0.00 0.00 0.01 0.02 0.02 0.09 0.24 0.52 0.77 1.10 1.43 1.38 1.37 1.20
0.00 0.00 0.00 0.00 0.00 0.00 0.00 0.01 0.00 0.01 0.00 0.00 0.00 0.00 0.00 0.00 0.00 0.00 0.00 0.00 0.00 0.00 0.00 0.00 0.00 0.00 0.00 0.00 0.00 0.00 0.00 0.01 0.04 0.05 0.02 0.01 0.05 0.10 0.14 0.27 0.66 1.26 1.07 0.83
0.00 0.00 0.00 0.00 0.01 0.00 0.00 0.00 0.00 0.01 0.00 0.01 0.00 0.00 0.00 0.00 0.00 0.00 0.00 0.00 0.01 0.02 0.02 0.00 0.00 0.00 0.00 0.00 0.01 0.02 0.03 0.04 0.08 0.09 0.07 0.05 0.02 0.04 0.04 0.06 0.15 0.30 0.31 0.26
0.07 0.03 0.02 0.01 0.03 0.03 0.01 0.00 0.00 0.00 0.00 0.00 0.00 0.00 0.00 0.00 0.00 0.00 0.00 0.00 0.00 0.00 0.00 0.00 0.00 0.00 0.00 0.00 0.00 0.02 0.03 0.02 0.02 0.01 0.00 0.00 0.02 0.06 0.07 0.08 0.06 0.07 0.12 0.08
0.20 0.17 0.20 0.10 0.01 0.02 0.02 0.01 0.01 0.01 0.01 0.00 0.00 0.00 0.00 0.00 0.00 0.00 0.00 0.00 0.00 0.00 0.00 0.00 0.00 0.01 0.00 0.00 0.00 0.01 0.01 0.01 0.01 0.00 0.00 0.01 0.01 0.02 0.03 0.07 0.10 0.08 0.08 0.04
0.30 0.24 0.16 0.14 0.09 0.04 0.04 0.07 0.09 0.04 0.01 0.02 0.03 0.00 0.00 0.00 0.00 0.00 0.00 0.00 0.00 0.00 0.00 0.02 0.04 0.02 0.01 0.00 0.00 0.00 0.01 0.02 0.01 0.00 0.00 0.00 0.01 0.01 0.00 0.00 0.01 0.01 0.01 0.02
0.15 0.39 0.38 0.11 0.10 0.13 0.05 0.14 0.14 0.09 0.01 0.01 0.08 0.12 0.06 0.01 0.00 0.00 0.00 0.00 0.00 0.00 0.02 0.03 0.04 0.04 0.03 0.00 0.01 0.01 0.03 0.02 0.00 0.01 0.02 0.01 0.01 0.00 0.00 0.00 0.00 0.01 0.01 0.01